Location: Unspecified
(0.0000°N, 0.0000°E)
Time: 22:36:26
(UTC+02:00)

Milstar 3 - Visible Passes

Search period start: 25 October 2014 00:00
Search period end: 03 November 2014 23:00
Orbit: 1102 x 5144 km, 28.2° (Epoch: 30 September)

Date Brightness Start Highest point End Pass type
(mag) Time Alt. Az. Time Alt. Az. Time Alt. Az.
25 Oct 6.3 00:26:39 10° SW 00:50:24 39° SSE 01:19:35 10° E visible
25 Oct 5.8 03:17:31 10° SW 03:50:26 72° SSE 04:15:31 10° ENE visible
25 Oct 5.5 06:15:18 11° WSW 06:44:44 58° NW 07:01:28 10° NE visible
25 Oct 6.0 20:34:20 10° WSW 20:44:35 28° S 21:01:57 10° SE visible
25 Oct 6.3 23:23:05 10° SW 23:42:18 33° SSE 23:53:25 27° SE visible
26 Oct 6.0 02:12:32 10° SW 02:45:30 59° SE 02:11:03 10° ENE visible
26 Oct 5.5 04:19:17 32° WSW 04:39:31 74° NNW 04:59:35 10° NE visible
26 Oct 6.3 21:19:54 10° SW 21:34:55 28° S 21:54:19 14° ESE visible
27 Oct 6.2 00:08:22 10° SW 00:49:15 37° ESE 01:04:59 10° E visible
27 Oct 5.6 02:59:49 10° WSW 03:33:23 89° NNW 03:57:00 10° ENE visible
27 Oct 5.6 06:00:33 10° W 06:26:41 42° NNW 06:41:32 10° NE visible
27 Oct 6.2 20:16:59 10° SW 20:28:34 25° S 20:47:22 10° SE visible
27 Oct 6.2 23:04:51 10° SW 23:27:19 41° SSE 23:56:57 10° E visible
28 Oct 5.8 01:54:17 10° SW 02:26:31 77° SSE 02:53:30 10° ENE visible
28 Oct 5.6 05:00:14 24° W 05:21:41 55° NNW 05:39:59 10° NE visible
28 Oct 6.0 19:14:15 10° SW 19:23:20 24° S 19:37:58 10° SE visible
28 Oct 6.3 22:01:51 10° SW 22:19:50 33° SSE 22:29:56 28° SE visible
29 Oct 6.1 00:49:48 10° SW 01:29:52 50° E 01:48:45 10° ENE visible
29 Oct 5.6 04:03:35 49° W 04:15:56 70° NNW 04:37:52 10° NE visible
29 Oct 6.2 20:59:12 10° SW 21:13:03 27° SSE 21:31:08 14° ESE visible
29 Oct 6.1 23:46:08 10° SW 00:33:05 26° E 00:42:24 10° E visible
30 Oct 5.7 02:36:27 10° WSW 03:09:25 85° NNW 03:35:01 10° NE visible
30 Oct 5.8 05:40:28 15° W 06:04:05 41° NNW 06:20:14 10° NE visible
30 Oct 6.1 19:56:44 10° SW 20:07:09 23° S 20:23:38 10° SE visible
30 Oct 6.1 22:43:09 10° SW 23:04:14 42° SSE 23:05:52 42° SSE visible
31 Oct 5.9 01:31:20 10° SW 02:09:51 66° ENE 02:31:13 10° ENE visible
31 Oct 5.7 04:43:32 35° W 04:58:27 53° NNW 05:18:23 10° NE visible
31 Oct 6.0 18:54:18 10° SW 19:02:12 20° S 19:14:13 10° SE visible
31 Oct 6.2 21:40:39 10° SW 21:57:25 33° SSE 22:07:12 28° SE visible
01 Nov 6.2 00:27:17 10° SW 01:12:49 37° E 01:26:10 10° ENE visible
01 Nov 5.7 03:46:29 61° WNW 03:52:10 66° NNW 04:15:58 10° NE visible
01 Nov 6.1 20:38:30 10° SW 20:51:15 26° SSE 21:08:34 13° ESE visible
01 Nov 6.0 23:24:05 10° SW 00:15:40 16° E 00:19:30 10° ENE visible
02 Nov 5.7 02:13:23 10° WSW 02:49:19 74° NNE 03:12:48 10° NE visible
02 Nov 5.9 05:22:59 22° WNW 05:41:23 39° NNW 05:58:53 10° NE visible
02 Nov 6.1 19:36:31 10° SW 19:45:49 21° SSE 20:00:06 10° SE visible
02 Nov 6.0 22:21:32 10° SW 22:41:10 43° SSE 22:43:29 43° SE visible
03 Nov 6.1 01:08:39 10° SW 01:52:04 50° ENE 02:08:40 10° ENE visible
03 Nov 5.8 04:25:43 43° WNW 04:35:07 50° NNW 04:56:40 10° NE visible
03 Nov 6.0 21:19:29 10° SW 21:35:02 34° SSE 21:44:57 27° ESE visible
